Baudette, MN

1:37 PM CDT on April 23, 2017 (GMT -0500)
Baudette International

Weather History for KBDE - March, 2014

Change the Weather History Date:

Tuesday, March 4, 2014

  Actual Average Record
Temperature  
Mean Temperature -3 °F -  
Max Temperature 12 °F 31 °F 51 °F (1987)
Min Temperature -18 °F 4 °F -22 °F (1952)
Degree Days  
Heating Degree Days 68    
Moisture  
Dew Point -13 °F    
Average Humidity 67    
Maximum Humidity 87    
Minimum Humidity 40    
Precipitation  
Precipitation 0.00 in - - ()
Sea Level Pressure  
Sea Level Pressure 30.35 in    
Wind  
Wind Speed 1 mph (NW)    
Max Wind Speed 9 mph    
Max Gust Speed -    
Visibility 10 miles    
Events      
Averages and records for this station are not official NWS values.
T = Trace of Precipitation, MM = Missing Value Source: NWS Daily Summary

Daily Weather History Graph

Daily Weather History Graph

Search for Another Location

Airport or City:

Trip Planner

Search our weather history database for the weather conditions in past years. The results will help you decide how hot, cold, wet, or windy it might be!

Date:

Astronomy

Mar. 04, 2014 Rise Set
Actual Time 6:54 AM CST 6:06 PM CST
Civil Twilight 6:22 AM CST 6:38 PM CST
Nautical Twilight 5:46 AM CST 7:14 PM CST
Astronomical Twilight 5:09 AM CST 7:51 PM CST
Moon 8:20 AM CST (3/4) 10:38 PM CST (3/4)
Length of Visible Light 12h 15m
Length of Day
11h 12m
Waxing Crescent, 15% of the Moon is Illuminated
Mar 4
Waxing Crescent
Mar 8
First Quarter
Mar 16
Full
Mar 23
Last Quarter
Mar 30
New

Hourly Weather History & Observations

Time (CST) Temp. Windchill Dew Point Humidity Pressure Visibility Wind Dir Wind Speed Gust Speed Precip Events Conditions
12:53 AM -0.0 °F - -4.0 °F 83% 30.30 in 10.0 mi Calm Calm - N/A   Partly Cloudy
1:53 AM -4.0 °F - -7.1 °F 87% 30.29 in 10.0 mi Calm Calm - N/A   Clear
2:53 AM -9.9 °F - -15.0 °F 78% 30.29 in 10.0 mi Calm Calm - N/A   Clear
3:53 AM -11.9 °F - -17.0 °F 78% 30.29 in 10.0 mi Calm Calm - N/A   Clear
4:53 AM -17.0 °F - -20.9 °F 82% 30.30 in 10.0 mi Calm Calm - N/A   Clear
5:53 AM -17.0 °F -27.2 °F -22.0 °F 78% 30.31 in 10.0 mi NW 3.5 mph - N/A   Clear
6:53 AM -18.9 °F - -24.0 °F 78% 30.33 in 10.0 mi Calm Calm - N/A   Clear
7:53 AM -17.0 °F - -20.0 °F 86% 30.32 in 10.0 mi Calm Calm - N/A   Clear
8:53 AM -9.9 °F - -13.0 °F 86% 30.33 in 10.0 mi Calm Calm - N/A   Clear
9:53 AM -0.9 °F - -8.0 °F 72% 30.33 in 10.0 mi Calm Calm - N/A   Clear
10:53 AM 3.0 °F - -7.1 °F 63% 30.34 in 10.0 mi Calm Calm - N/A   Clear
11:53 AM 6.1 °F - -8.0 °F 53% 30.34 in 10.0 mi Calm Calm - N/A   Clear
12:53 PM 10.0 °F -0.9 °F -9.0 °F 42% 30.33 in 10.0 mi NW 6.9 mph - N/A   Clear
1:53 PM 10.9 °F -1.8 °F -7.1 °F 44% 30.32 in 10.0 mi NNW 9.2 mph - N/A   Clear
2:53 PM 10.9 °F -1.8 °F -9.0 °F 40% 30.33 in 10.0 mi NW 9.2 mph - N/A   Clear
3:53 PM 12.0 °F 1.5 °F -7.1 °F 42% 30.33 in 10.0 mi NW 6.9 mph - N/A   Clear
4:53 PM 9.0 °F 0.6 °F -8.0 °F 46% 30.35 in 10.0 mi NW 4.6 mph - N/A   Clear
5:53 PM 6.1 °F -2.8 °F -9.0 °F 50% 30.37 in 10.0 mi WNW 4.6 mph - N/A   Clear
6:53 PM 1.0 °F -8.7 °F -11.0 °F 57% 30.39 in 10.0 mi NNW 4.6 mph - N/A   Clear
7:53 PM -2.0 °F - -11.0 °F 66% 30.40 in 10.0 mi Calm Calm - N/A   Clear
8:53 PM -8.0 °F - -15.0 °F 71% 30.42 in 10.0 mi Calm Calm - N/A   Clear
9:53 PM -13.0 °F - -18.0 °F 78% 30.44 in 10.0 mi Calm Calm - N/A   Clear
10:53 PM -13.0 °F - -18.9 °F 75% 30.46 in 10.0 mi Calm Calm - N/A   Clear
11:53 PM -16.1 °F - -20.9 °F 79% 30.47 in 10.0 mi Calm Calm - N/A   Clear